Schedule Outage

Maintenance Shutdown Schedule
The augmentation and maintenance work will be carried out in the areas mentioned below to ensure an uninterrupted power supply and no equipment failure / breakdown. Due to this, the Electricity supply may be affected in the following areas on
25.04.2017
S. NoDisttZoneDESCRIPTIONDate Time fromDate Time toArea affectedTotal Duration (in Hrs)
1 BAWANA 512 PREVENTIVE MAINTENANCE 25.04.17 08:00 25.04.17 02:00 AUCHANDI AND MUNGUSH PUR VILL. 6
2 BAWANA 512 PREVENTIVE MAINTENANCE 25.04.17 10:15 25.04.17 02:15 PART OF DARYA PUR, 4
3 BAWANA 512 PREVENTIVE MAINTENANCE 25.04.17 10:00 25.04.17 02:00 PART OF BAWANA VILL. 4
4 BAWANA 533 PREVENTIVE MAINTENANCE 25.04.17 08:00 25.04.17 04:00 LAADPUR VILLAGE 8
5 KESAHAVPURAM 509 PREVENTIVE MAINTENANCE 25.04.17 08:00 25.04.17 02:00 PART OF C-1,C-2 & C-3 S/STN 6
6 KESAHAVPURAM 509 PREVENTIVE MAINTENANCE 25.04.17 08:00 25.04.17 02:00 PART OF C-3,C-2 & C-1 BLOCK AHOK VIHAR PH-2 6
7 MANGOLPURI 515 PROJECT WORK 25.04.17 08:00 25.04.17 12:00 PART OF J & K BLK 4
8 MANGOLPURI 519 PROJECT WORK 25.04.17 08:00 25.04.17 02:00 PART OF SEC-22 6
9 MANGOLPURI 519 PREVENTIVE MAINTENANCE 25.04.17 08:00 25.04.17 01:00 PART OF SEC-22 5
10 MANGOLPURI 523 PREVENTIVE MAINTENANCE 25.04.17 08:00 25.04.17 02:00 PART OF RST BLOCK 6
11 MODEL TOWN 413 PREVENTIVE MAINTENANCE 25.04.17 10:00 25.04.17 12:00 PART OF OUTRAM LANE 2
12 MODEL TOWN 413 PREVENTIVE MAINTENANCE 25.04.17 10:00 25.04.17 12:00 PART OF OUTRAM LANE 2
13 MODEL TOWN 413 PREVENTIVE MAINTENANCE 25.04.17 10:00 25.04.17 12:00 PART OF OUTRAM LANE-IN H.N. 1400-1500 2
14 MOTI NAGAR 1304 PREVENTIVE MAINTENANCE 25.04.17 10:30 25.04.17 02:30 INDEPURI MAIN MARKET 4
15 NARELA 514 PROJECT WORK 25.04.17 11:00 25.04.17 03:00 KRISHNA COLONY 4
16 NARELA 514 PROJECT WORK 25.04.17 11:00 25.04.17 03:00 SANJAY COLOY AND GAUTAM COLONY 4
17 NARELA 514 PROJECT WORK 25.04.17 11:00 25.04.17 03:00 KANYA GURUKUL AND MAMUR PUR AGGRICULTURE LAND 4
18 NARELA 514 PREVENTIVE MAINTENANCE 25.04.17 10:30 25.04.17 01:30 BAKNER VILLAGE 3
19 NARELA 517 PREVENTIVE MAINTENANCE 25.04.17 10:30 25.04.17 05:30 PART OF SINGHU VILLAGE 7
20 NARELA 522 PREVENTIVE MAINTENANCE 25.04.17 09:00 25.04.17 05:00 PART OF A5 PKT 6 POLICE COLONY 8
21 NARELA 522 PROJECT WORK 25.04.17 12:30 25.04.17 05:00 PART OF SHAHPUR VILLAGE 5
22 NARELA 522 PREVENTIVE MAINTENANCE 25.04.17 10:00 25.04.17 05:33 B-2,PKT-B 7
23 NARELA 522 PREVENTIVE MAINTENANCE 25.04.17 10:00 25.04.17 05:35 B-2, PKT-B 7
24 PITAMPURA 508 PREVENTIVE MAINTENANCE 25.04.17 06:00 25.04.17 09:00 ND BLK P/M S/S, SACHDEVA PL/M S/S, DP BLK P/M S/S 3
25 PITAMPURA 508 PREVENTIVE MAINTENANCE 25.04.17 06:00 25.04.17 09:00 VAISHALI CHOWK P/M S/S 3
26 ROHINI 551 PREVENTIVE MAINTENANCE 25.04.17 11:00 25.04.17 03:00 K & L-BLOCK ,VIJAY VIHAR PHASE 2 4
27 ROHINI 561 PREVENTIVE MAINTENANCE 25.04.17 11:00 25.04.17 03:00 PART OF SEC-24 4
28 ROHINI 571 PREVENTIVE MAINTENANCE 25.04.17 02:00 25.04.17 04:00 KEWAL KUNJ APTT 2
29 ROHINI 571 PREVENTIVE MAINTENANCE 25.04.17 02:00 25.04.17 04:00 KEWAL KUNJ APTT 2
30 ROHINI 571 PREVENTIVE MAINTENANCE 25.04.17 04:00 25.04.17 06:00 KEWAL KUNJ APTT 2
31 ROHINI 571 PREVENTIVE MAINTENANCE 25.04.17 04:00 25.04.17 06:00 KEWAL KUNJ APTT 2
32 ROHINI 571 PREVENTIVE MAINTENANCE 25.04.17 10:00 25.04.17 12:00 FARMER APTT 2
33 ROHINI 571 PREVENTIVE MAINTENANCE 25.04.17 10:00 25.04.17 12:00 FARMER APTT 2
34 ROHINI 571 PREVENTIVE MAINTENANCE 25.04.17 12:00 25.04.17 02:00 FARMER APTT 2
35 ROHINI 571 PREVENTIVE MAINTENANCE 25.04.17 12:00 25.04.17 02:00 FARMER APTT 2
36 ROHINI 571 PROJECT WORK 25.04.17 02:00 25.04.17 03:00 HR HOSPITAL 1
37 ROHINI 571 PROJECT WORK 25.04.17 10:00 25.04.17 11:00 HR HOSPITAL 1
38 ROHINI 571 PROJECT WORK 25.04.17 11:00 25.04.17 03:00 PART OF SEC-7 ROHINI 4
39 SHAKTI NAGAR 421 PREVENTIVE MAINTENANCE 25.04.17 11:00 25.04.17 12:00 BAGICHI PEER JI 1
40 SHALIMARBAGH 505 PROJECT WORK 25.04.17 09:45 25.04.17 05:45 C-1000 TO 2000 JAHANGIR PURI 8
41 SHALIMARBAGH 505 PROJECT WORK 25.04.17 07:00 25.04.17 03:00 G-BLOCK JHUGGI JAHANGIRPURI. 8
42 SHALIMARBAGH 531 PROJECT WORK 25.04.17 08:00 25.04.17 01:00 SOM BAZAR JJ CLUSTER 5
43 NARELA 514 TENTATIVE SYTSTEM MAINTENANCE 25.04.17 18:00 25.04.17 22:00 PART OF PREM COLONY 4
44 MANGOLPURI 523 TENTATIVE SYTSTEM MAINTENANCE 25.04.17 06:00 25.04.17 10:00 PART OF GAURAV NAGAR/RAMESH ENCLAVE/AMAN VIHAR/ HARI NAGAR 4
45 MANGOLPURI 515 TENTATIVE SYTSTEM MAINTENANCE 25.04.17 18:00 25.04.17 22:00 PART OF H BLK MANGOL PURI 4
46 BAWANA 513 TENTATIVE SYTSTEM MAINTENANCE 25.04.17 18:00 25.04.17 22:00 PART OF SAWDA  4
47 KESAHAVPURAM 501 TENTATIVE SYTSTEM MAINTENANCE 25.04.17 16:00 25.04.17 20:00 PART OF RAMPURA VILLAGE 4
48 MANGOLPURI 518 TENTATIVE SYTSTEM MAINTENANCE 25.04.17 06:00 25.04.17 10:00 PART OF SULTAN PURI 4
49 KESAHAVPURAM 509 TENTATIVE SYTSTEM MAINTENANCE 25.04.17 10:00 25.04.17 14:00 WAZIRPUR INDUSTRIAL AREA B & C BLOCK, GROUP IND. AREA WZP 4
50 NARELA 517 TENTATIVE SYTSTEM MAINTENANCE 25.04.17 06:00 25.04.17 10:00 PART OF KHAM PUR 4
51 SHALIMARBAGH 505 TENTATIVE SYTSTEM MAINTENANCE 25.04.17 16:00 25.04.17 20:00 PART OF MAHENDRA PARK 4
52 SHALIMARBAGH 505 TENTATIVE SYTSTEM MAINTENANCE 25.04.17 16:00 25.04.17 20:00 PART OF JEHANGIR PURI 4
53 SHALIMARBAGH 505 TENTATIVE SYTSTEM MAINTENANCE 25.04.17 18:00 25.04.17 22:00 PART OF SANJAY NAGAR 4
54 MANGOLPURI 519 TENTATIVE SYTSTEM MAINTENANCE 25.04.17 16:00 25.04.17 20:00 PART OF BEGUM PUR 4
55 MANGOLPURI 515 TENTATIVE SYTSTEM MAINTENANCE 25.04.17 18:00 25.04.17 22:00 PART OF J BLK MANGOL PURI 4
56 BAWANA 512 TENTATIVE SYTSTEM MAINTENANCE 25.04.17 10:00 25.04.17 14:00 PART OF AUCHANDI VILLAGE 4
57 BADLI 516 TENTATIVE SYTSTEM MAINTENANCE 25.04.17 10:00 25.04.17 14:00 PART OF SHAHBAD DAIRY 4
58 NARELA 514 TENTATIVE SYTSTEM MAINTENANCE 25.04.17 16:00 25.04.17 20:00 PART OF SWANTANTAR NAGAR 4
59 BAWANA 513 TENTATIVE SYTSTEM MAINTENANCE 25.04.17 16:00 25.04.17 20:00 PART OF JAIN NAGAR AND RAJEEV NAGAR. 4
60 KESAHAVPURAM 520 TENTATIVE SYTSTEM MAINTENANCE 25.04.17 10:00 25.04.17 14:00 HARIZAN BASTI, KANHAIYA NAGAR, HANSA PURI, ONKAR NAGAR A,B & C, RAMPURA VILLAGE 4
61 ROHINI 551 TENTATIVE SYTSTEM MAINTENANCE 25.04.17 06:00 25.04.17 10:00 PART OF VIJAY VIHAR 4
62 ROHINI 551 TENTATIVE SYTSTEM MAINTENANCE 25.04.17 06:00 25.04.17 10:00 PART OF SANJAY ENCLAVE 4
63 MANGOLPURI 519 TENTATIVE SYTSTEM MAINTENANCE 25.04.17 06:00 25.04.17 10:00 PART OF BUDH VIHAR 4
64 MANGOLPURI 519 TENTATIVE SYTSTEM MAINTENANCE 25.04.17 18:00 25.04.17 22:00 PART OF ROHINI-SEC-20 AND 21. 4
65 BAWANA 512 TENTATIVE SYTSTEM MAINTENANCE 25.04.17 16:00 25.04.17 20:00 PART OF BAWANA VILLAGE 4
66 KESAHAVPURAM 502 TENTATIVE SYTSTEM MAINTENANCE 25.04.17 18:00 25.04.17 22:00 NIMRI COLONY, BHARAT NAGAR, WAZIRPUR JJ COLONY, WAZIRPUR VILLAGE 4
67 NARELA 511 TENTATIVE SYTSTEM MAINTENANCE 25.04.17 16:00 25.04.17 20:00 PART OF SWAROOP NAGAR 4
68 PITAM PURA 530 TENTATIVE SYTSTEM MAINTENANCE 25.04.17 06:00 25.04.17 10:00 PART OF L & M BLOCK OF SHAKURPUR JJ COLONY 4
69 NARELA 514 TENTATIVE SYTSTEM MAINTENANCE 25.04.17 06:00 25.04.17 10:00 PART OF GHOGHA VILLAGE 4